Lapse_Rate
5.4 5.5 5.6 5.6 5.7 5.8 5.8 5.9 5.9 6.0 6.1 6.1 6.1 6.1 6.2 6.3 6.3 6.4 6.4 6.4 6.4 6.4 6.4 6.4 6.3 6.3 6.2 6.2 5.9 6.5 6.5 6.2 6.0 5.9 5.9 5.8 6.1 6.5 7.0 7.2 7.3 7.4 7.2 6.9 6.9 7.1 6.9
5.4 5.5 5.6 5.6 5.7 5.8 5.8 5.9 5.9 6.0 6.1 6.2 6.2 6.2 6.3 6.4 6.5 6.6 6.6 6.6 6.6 6.6 6.5 6.5 6.5 6.4 6.4 6.1 6.6 6.5 6.5 6.4 6.1 6.0 5.9 5.9 6.2 6.5 6.8 7.2 7.3 7.3 7.1 7.1 7.0 7.1 6.9
5.5 5.6 5.6 5.7 5.7 5.8 5.9 6.0 6.0 6.1 6.2 6.3 6.3 6.3 6.4 6.5 6.6 6.7 6.6 6.6 6.7 6.7 6.6 6.6 6.6 6.6 6.5 6.1 6.7 6.5 6.5 6.4 6.2 6.0 5.8 6.1 6.2 6.3 6.9 7.2 7.2 7.2 7.6 7.6 7.3 7.0 7.1
5.6 5.7 5.7 5.8 5.8 5.9 5.9 6.0 6.1 6.1 6.2 6.3 6.4 6.4 6.5 6.6 6.6 6.6 6.7 6.7 6.7 6.6 6.7 6.6 6.6 6.5 6.1 6.9 6.7 6.6 6.5 6.5 6.3 6.0 5.7 6.1 5.9 6.2 6.6 7.1 7.1 7.5 8.1 8.3 7.2 7.1 7.0
5.8 5.8 5.9 5.9 5.9 6.0 6.0 6.1 6.2 6.2 6.3 6.3 6.3 6.4 6.4 6.6 6.6 6.6 6.6 6.7 6.7 6.6 6.6 6.5 6.5 6.4 5.9 6.7 6.7 6.6 6.4 6.3 6.3 6.2 6.1 5.9 6.3 6.3 6.8 7.0 7.8 8.2 9.3 9.2 7.7 7.1 7.1
5.8 5.8 5.9 6.0 6.0 6.0 6.0 6.0 6.2 6.3 6.3 6.4 6.4 6.4 6.4 6.5 6.5 6.5 6.6 6.6 6.6 6.6 6.5 6.4 6.2 6.3 6.3 6.5 6.7 6.8 6.5 6.2 6.3 5.9 5.9 6.2 6.2 6.6 6.8 7.4 9.1 9.7 9.5 8.7 9.0 7.5 7.4
5.7 5.8 5.8 5.8 5.9 5.9 6.0 6.0 6.1 6.2 6.4 6.4 6.5 6.5 6.4 6.5 6.4 6.5 6.5 6.5 6.3 6.3 6.5 6.1 5.7 5.6 5.6 5.8 6.8 6.6 6.5 6.3 5.8 5.9 6.3 6.3 6.6 7.0 7.4 7.6 7.9 8.1 8.0 8.1 8.0 7.6 7.5
5.8 5.8 5.9 5.9 5.9 6.0 6.0 6.1 6.1 6.2 6.3 6.4 6.5 6.6 6.6 6.5 6.5 6.5 6.5 6.5 6.5 6.4 5.9 6.2 6.0 5.6 5.6 6.1 6.1 5.6 6.2 6.0 5.9 6.3 6.5 7.0 7.0 7.3 7.5 7.7 7.8 7.8 7.9 8.2 8.3 7.5 7.6
5.7 5.8 5.9 5.9 5.9 6.0 6.1 6.1 6.1 6.2 6.3 6.3 6.5 6.7 6.7 6.6 6.4 6.4 6.5 6.5 6.5 6.4 6.2 5.7 6.0 5.9 6.0 6.0 5.9 5.8 6.1 6.1 6.3 6.6 7.0 7.3 7.9 7.5 7.5 7.7 7.5 7.7 8.0 8.6 8.6 7.6 7.7
5.8 5.8 5.9 6.0 6.0 6.1 6.1 6.3 6.3 6.4 6.5 6.6 6.6 6.8 6.9 6.9 6.7 6.6 6.6 6.6 6.6 6.5 6.2 6.4 6.3 6.0 5.7 5.9 6.1 6.2 5.8 6.2 6.5 6.8 7.0 7.1 7.5 7.4 7.4 7.5 7.6 7.9 8.1 8.0 7.8 7.5 8.3
6.0 6.0 6.0 6.1 6.2 6.3 6.3 6.4 6.5 6.5 6.7 6.6 6.6 6.7 6.9 7.0 6.8 6.6 6.7 6.6 6.8 6.7 8.7 6.7 6.1 6.4 5.8 6.1 6.6 6.1 5.9 6.1 6.6 6.8 7.0 7.5 7.1 7.2 7.1 7.6 7.6 7.7 7.9 7.6 7.7 7.7 7.9
6.1 6.3 6.3 6.4 6.4 6.4 6.4 6.4 6.5 6.5 6.6 6.7 6.6 6.7 6.8 6.8 6.7 6.6 6.7 6.7 6.8 6.6 8.7 7.0 6.5 6.5 6.3 6.2 6.7 6.6 6.1 6.1 6.5 6.7 6.9 7.0 6.9 7.0 7.4 7.3 7.4 7.5 7.6 7.7 7.8 8.0 8.2
6.0 6.1 6.2 6.3 6.4 6.4 6.3 6.3 6.5 6.6 6.6 6.8 6.7 6.7 6.8 6.8 6.7 6.6 6.6 6.6 6.6 7.9 7.8 7.4 7.0 6.8 6.6 6.7 6.8 6.4 6.3 6.3 6.6 6.7 7.2 7.2 7.1 7.2 7.0 7.2 7.4 7.5 7.9 8.5 9.0 9.7 9.6
5.8 6.0 6.0 6.0 6.1 6.2 6.2 6.2 6.3 6.5 6.6 6.7 6.8 6.7 6.8 6.9 6.9 6.7 6.5 5.9 7.2 8.3 8.2 7.5 7.6 7.3 7.2 7.2 7.2 7.0 6.8 6.9 6.9 7.3 8.3 8.4 8.9 7.7 7.4 7.4 8.0 7.7 8.1 9.5 9.5 9.8 9.9
5.7 5.9 5.9 5.8 5.8 6.0 6.0 6.0 6.1 6.3 6.4 6.5 6.7 6.6 6.7 6.7 6.8 6.7 6.3 6.6 8.2 8.0 7.6 7.7 7.7 7.8 7.7 7.7 7.7 7.5 7.5 7.5 7.6 7.4 8.0 9.6 9.1 8.0 7.9 7.7 7.7 8.2 8.0 8.5 9.5 9.6 9.8
5.8 5.8 5.6 5.6 5.6 5.7 5.9 6.0 5.9 6.1 6.4 6.4 6.5 6.4 6.4 6.5 6.4 6.4 5.7 6.8 7.3 7.0 6.8 7.1 7.8 8.1 8.4 8.2 7.9 8.1 8.1 8.0 8.0 7.8 7.9 8.7 8.9 8.3 8.0 7.7 7.9 8.0 8.9 9.4 9.0 9.6 9.6
5.6 5.4 5.3 5.3 5.4 5.5 5.8 5.9 5.9 5.9 6.2 6.3 6.3 5.7 6.1 6.1 6.1 6.0 6.2 7.4 7.0 6.7 6.5 7.0 7.6 8.1 8.1 9.0 8.8 8.2 8.3 8.9 8.0 8.2 7.9 8.1 8.4 9.4 8.8 7.9 8.5 8.2 8.2 8.3 9.3 9.6 10.0
5.1 5.1 5.1 5.2 5.2 5.3 5.5 5.8 5.8 5.8 5.8 6.2 6.1 5.6 6.1 5.9 5.6 5.9 6.6 6.9 6.4 6.5 6.4 6.5 6.7 7.2 7.7 8.1 8.4 8.9 9.5 9.5 7.9 8.3 8.2 8.3 8.5 8.9 9.4 9.3 8.8 9.1 9.6 9.5 9.5 9.3 9.5
4.8 4.8 4.8 4.9 5.0 5.1 5.2 5.5 5.6 5.8 5.8 5.8 6.0 5.2 6.1 6.0 5.9 6.6 6.7 6.3 6.1 6.4 6.5 6.6 6.7 7.0 7.3 7.4 7.7 8.0 8.6 8.5 7.1 7.9 8.2 8.5 8.2 8.7 9.3 9.6 9.6 9.4 8.8 9.3 9.6 9.6 9.7
4.7 4.7 4.6 4.8 4.9 5.0 5.0 5.1 5.4 5.6 5.7 5.8 5.9 5.6 5.4 5.4 5.6 5.8 6.4 6.5 6.5 6.1 6.0 6.1 6.3 6.6 6.7 7.0 7.4 7.7 8.2 8.2 6.9 7.5 7.7 7.8 8.5 9.4 9.7 9.6 9.5 9.4 9.5 9.1 9.6 9.6 9.6
4.5 4.6 4.5 4.5 4.6 4.8 4.9 5.0 5.2 5.3 5.5 5.5 5.1 5.1 5.5 5.9 5.9 5.6 5.9 6.1 6.3 6.6 6.3 6.0 6.3 6.5 6.8 7.0 7.3 7.6 7.6 7.9 7.0 7.2 7.0 7.4 7.7 8.2 9.1 9.5 9.4 9.5 9.5 9.5 9.5 9.6 9.6
4.5 4.5 4.5 4.5 4.5 4.7 4.8 5.0 5.0 5.2 5.1 5.2 5.1 5.2 5.0 4.9 4.9 5.0 5.5 5.9 6.1 6.4 6.5 6.3 6.4 6.6 6.5 6.5 7.0 7.6 7.1 7.4 7.9 7.3 6.9 7.4 7.5 7.9 8.1 9.2 9.2 8.8 9.3 9.4 9.5 9.5 9.3
4.4 4.3 4.3 4.4 4.5 4.6 4.8 4.8 4.8 4.8 4.8 4.8 4.9 5.0 5.1 4.7 5.2 5.5 5.9 5.9 5.9 5.7 5.7 5.7 5.9 5.8 6.2 6.3 6.0 6.1 6.3 7.0 7.1 7.5 7.6 7.4 7.8 8.3 8.1 8.9 9.2 9.2 8.4 8.7 9.1 9.4 9.4
4.4 4.2 4.2 4.4 4.3 4.4 4.6 4.5 4.3 4.5 4.5 4.6 4.7 4.9 4.9 5.1 5.1 5.5 5.3 5.0 5.0 5.2 5.3 5.5 5.3 5.3 5.6 5.4 5.6 5.9 6.3 6.6 6.9 7.0 7.3 7.4 7.6 8.1 7.9 9.1 8.9 8.9 9.2 9.2 9.2 9.2 9.3
4.5 4.1 4.3 4.2 4.1 4.2 4.4 4.4 4.5 4.5 4.5 4.5 4.5 4.7 4.8 4.4 5.1 4.9 4.9 4.9 4.9 4.8 4.9 4.9 5.0 5.1 5.2 5.3 5.6 6.0 6.4 6.7 6.8 7.1 7.2 7.4 7.6 7.9 8.6 9.0 8.6 9.2 9.1 9.2 9.2 9.1 9.0
4.5 4.5 4.6 4.4 4.2 4.3 4.5 4.5 4.6 4.5 4.5 4.5 4.5 4.4 4.5 4.8 4.6 4.7 4.8 4.5 4.8 5.3 5.6 5.4 4.9 5.1 5.2 5.6 6.1 6.3 6.7 7.3 7.6 7.5 7.4 7.6 7.7 8.1 8.7 8.8 8.4 9.1 8.7 8.3 8.3 8.1 8.9
4.6 4.6 4.5 4.4 4.3 4.1 4.1 4.3 4.5 4.6 4.6 4.7 4.7 4.8 4.8 4.9 4.5 5.3 4.8 5.1 4.9 5.0 5.5 5.7 5.3 5.3 5.4 6.0 6.5 7.0 7.4 7.5 7.5 8.3 9.0 8.7 8.5 8.5 9.1 9.0 7.8 8.5 8.9 8.4 8.0 8.7 7.5
4.6 4.5 4.5 4.5 4.4 4.1 4.2 4.4 4.7 4.8 4.8 5.1 5.2 5.1 5.2 5.3 5.2 5.5 5.6 5.7 5.1 5.0 5.3 5.4 5.8 5.7 5.9 6.2 6.8 7.3 7.5 8.1 8.2 8.6 8.6 8.8 8.3 8.5 9.0 9.2 8.7 9.0 9.1 8.9 8.3 7.5 6.9
4.8 4.8 4.8 4.5 4.4 4.4 4.6 4.7 4.7 4.8 5.0 5.1 5.5 5.6 5.4 5.6 5.4 5.8 5.8 5.8 5.7 5.6 5.6 5.2 5.6 5.5 6.1 6.5 7.2 7.1 7.6 8.2 8.0 8.3 8.6 7.8 8.3 8.6 8.6 8.3 7.3 7.5 7.9 7.5 7.2 6.7 6.7
Wind_Speed
13 14 14 14 15 15 15 16 16 16 17 17 17 16 17 16 17 16 16 16 16 15 14 14 12 10 8 8 8 12 13 11 15 16 15 14 12 9 11 1 6 1 4 1 1 4 1
14 14 15 15 15 16 17 17 17 17 17 18 18 18 18 18 18 17 17 17 17 17 15 13 11 7 8 13 5 5 11 15 16 17 16 13 9 6 9 7 7 4 3 1 1 2 2
15 15 16 16 17 17 17 18 18 18 18 18 18 18 18 18 18 18 18 18 19 16 12 11 9 8 11 8 1 4 9 15 17 17 16 12 12 10 3 11 2 7 9 7 4 1 3
16 17 17 17 18 18 19 19 19 19 19 19 19 19 19 19 18 17 18 19 17 16 11 10 9 10 7 5 3 7 9 12 13 15 13 8 6 13 10 7 10 12 9 3 5 2 2
16 17 18 18 19 20 20 20 20 20 20 21 21 21 21 20 19 17 17 19 18 6 5 9 8 9 9 5 10 12 11 11 12 11 10 4 11 14 14 11 13 10 9 4 8 2 4
17 18 19 19 20 21 21 21 22 22 23 22 22 22 21 20 18 18 18 17 7 5 8 9 8 7 8 11 11 12 11 9 13 12 11 13 9 14 13 13 12 4 6 7 4 7 5
17 19 20 20 21 22 22 22 22 23 24 24 23 23 22 20 19 16 13 4 5 7 12 10 5 5 6 6 10 12 12 13 13 13 15 16 13 16 17 16 16 7 9 9 7 3 6
17 18 19 20 21 22 23 23 24 24 25 25 24 23 21 20 18 18 7 8 7 6 9 17 11 11 4 12 12 14 14 13 13 16 17 14 18 17 15 15 13 9 13 12 8 1 9
17 18 19 20 21 22 23 24 25 25 26 25 25 23 21 20 19 6 10 10 5 7 7 13 13 15 12 11 14 18 18 17 13 17 17 18 8 17 18 11 12 14 15 13 10 9 13
17 18 19 20 21 22 24 25 27 27 28 27 25 23 20 19 6 4 10 7 5 5 6 14 11 10 15 12 14 18 19 14 11 16 18 14 17 8 15 14 14 16 12 13 12 9 10
18 19 20 21 22 23 24 25 27 28 29 28 26 23 18 9 10 8 7 2 6 4 6 13 11 7 13 13 10 17 19 16 15 13 11 14 13 15 14 14 15 19 15 12 12 13 14
17 19 20 21 22 23 25 26 28 30 31 30 27 22 12 6 6 9 4 4 6 7 4 8 9 11 16 19 10 15 16 20 13 14 13 17 5 9 14 14 14 8 8 14 13 13 13
17 19 20 22 23 24 26 27 29 31 32 32 28 20 6 8 2 3 6 7 7 9 5 10 11 15 17 17 17 12 19 20 15 13 15 17 19 15 13 11 13 15 14 10 11 10 12
16 18 20 22 24 25 27 29 31 32 34 34 30 12 12 7 2 5 6 8 9 5 1 3 4 13 15 18 18 15 18 17 20 17 15 11 15 22 17 17 10 12 16 12 10 11 9
15 18 19 22 24 26 28 30 32 35 37 34 31 6 7 6 7 5 8 10 5 5 6 5 9 11 14 15 13 15 18 18 19 20 17 7 9 7 12 16 15 15 14 16 18 18 13
15 17 19 21 24 26 28 30 34 37 40 32 6 6 4 5 7 7 8 16 10 4 7 7 13 13 14 16 16 15 16 14 17 19 17 10 11 9 9 12 13 14 15 11 12 15 15
14 16 18 20 23 25 27 30 33 37 42 34 5 5 6 8 6 7 10 10 3 5 6 9 12 12 10 14 18 18 13 13 9 16 15 17 12 8 11 14 15 10 13 14 17 12 12
14 16 17 19 22 25 27 30 32 34 43 13 5 4 6 6 7 8 12 11 4 11 7 10 8 15 15 11 15 13 18 16 14 13 13 18 11 14 18 13 17 17 15 13 11 17 11
13 14 17 19 21 23 26 29 32 31 26 8 6 5 6 7 8 9 12 7 7 11 10 6 9 10 12 13 12 14 16 12 5 9 8 12 11 15 16 14 17 12 16 17 16 16 17
12 13 15 17 19 22 25 28 31 33 27 6 5 3 5 7 11 11 13 9 13 7 11 7 11 12 9 15 15 14 14 8 4 11 8 5 13 16 13 16 8 8 11 18 18 14 14
11 12 14 16 18 20 22 26 31 36 36 5 2 3 5 4 2 7 9 11 10 13 9 6 10 12 14 12 15 16 17 14 12 6 8 11 19 19 21 21 20 18 13 15 14 15 15
9 10 12 13 15 18 20 23 27 35 44 4 5 4 7 11 9 10 8 11 13 14 8 13 10 14 6 11 14 16 9 17 16 13 15 17 17 18 21 20 19 22 20 21 21 20 21
9 9 10 11 13 15 17 20 23 30 30 4 6 4 5 5 9 7 5 8 6 6 10 10 13 10 11 9 12 11 11 16 10 11 14 13 15 16 20 21 22 23 23 23 23 22 19
9 8 8 9 11 13 15 16 19 22 22 8 5 7 6 9 3 7 8 7 10 9 10 12 4 9 6 12 14 14 17 18 18 17 15 16 18 12 16 19 22 18 18 18 18 20 17
9 8 7 7 9 11 12 13 16 18 22 8 5 5 5 7 9 9 8 8 9 9 12 14 14 12 10 11 11 14 13 17 20 21 19 17 16 15 16 17 24 21 13 13 18 17 14
9 7 6 5 6 8 10 11 12 15 20 9 3 6 6 6 6 8 10 10 10 10 10 10 7 7 11 10 10 16 13 15 15 22 21 21 19 15 15 21 26 17 12 7 14 15 13
9 7 5 4 5 7 9 10 10 12 16 11 3 5 5 7 7 5 5 8 9 8 8 8 5 7 10 9 11 13 14 15 16 17 12 10 11 17 17 19 21 20 20 11 12 8 7
8 7 6 4 4 6 8 9 9 10 13 11 4 4 5 6 13 13 12 9 8 7 8 6 7 11 8 10 10 11 11 13 14 15 17 14 13 13 13 20 26 15 19 19 1 3 2
8 8 6 4 3 4 6 7 8 8 11 13 5 3 4 6 9 15 15 16 15 13 10 9 10 8 5 7 4 6 8 7 10 12 8 14 16 15 16 9 8 11 10 4 7 4 4
Wind_Direction
24 22 19 14 9 5 1 358 355 353 350 348 345 342 338 335 333 329 326 323 321 317 311 306 301 302 279 221 254 128 143 159 183 210 221 214 228 240 271 294 275 302 359 14 57 344 355
22 19 15 10 5 2 359 355 352 349 346 343 340 338 335 333 331 328 326 323 316 309 300 292 287 291 247 249 75 134 169 176 193 208 217 224 241 279 298 272 284 10 16 93 262 19 227
16 14 12 7 4 0 357 353 349 347 344 341 339 337 334 331 329 327 325 319 312 302 287 272 259 250 262 252 21 190 184 190 201 210 218 226 258 260 279 252 90 275 266 189 157 10 303
18 15 13 10 6 2 358 355 351 348 344 341 338 336 334 331 328 324 320 315 305 302 261 237 228 243 263 72 253 193 182 187 205 211 249 247 253 274 278 309 254 243 252 176 113 237 124
16 13 10 8 4 359 355 352 348 344 339 337 335 333 332 330 326 322 316 311 299 288 197 194 213 235 246 131 203 191 194 187 192 202 220 294 254 250 249 245 251 202 258 102 139 146 303
11 7 6 4 0 355 352 348 345 341 337 335 333 329 327 325 321 318 311 294 314 207 204 211 271 242 231 223 183 169 192 188 188 189 198 218 227 238 229 248 242 290 197 181 278 137 259
7 4 2 360 355 350 348 344 340 337 334 332 331 327 324 322 319 316 304 198 207 189 208 230 196 251 132 111 155 188 182 180 192 205 214 201 219 229 235 223 274 324 294 285 259 101 291
5 2 359 355 349 345 343 339 336 334 332 329 328 325 322 319 317 313 253 246 27 346 286 212 236 243 294 174 183 178 181 189 203 210 217 214 230 242 242 259 256 263 251 255 251 186 269
1 358 354 350 346 343 340 337 334 331 329 327 324 323 322 320 320 272 234 240 335 327 254 174 210 214 188 211 212 180 196 215 201 216 215 235 219 211 249 238 249 246 263 274 293 329 284
359 356 352 348 345 342 339 335 332 330 328 325 322 320 321 319 295 202 226 221 240 306 265 151 190 205 190 212 230 182 200 210 213 233 229 232 254 230 255 229 249 249 244 250 270 269 274
358 356 351 348 345 342 338 335 331 329 326 323 321 317 313 279 322 233 46 218 291 242 261 153 137 111 184 205 127 194 184 214 241 216 229 232 225 241 232 246 240 256 272 282 271 259 268
356 355 350 346 344 341 337 335 332 329 326 323 320 315 302 201 222 270 270 250 239 232 230 152 145 185 189 211 191 146 188 222 232 256 232 258 233 252 250 242 245 260 253 258 257 249 254
355 352 347 344 342 340 339 337 333 330 327 325 322 315 230 309 23 178 216 229 231 250 129 157 184 173 195 193 215 180 191 199 216 221 232 224 239 219 238 250 229 235 240 242 224 224 249
352 350 346 344 342 341 339 338 335 332 331 329 325 315 206 270 286 234 218 228 255 358 180 66 195 181 200 181 210 193 192 210 219 229 273 208 214 213 208 229 233 222 232 250 254 250 270
347 346 346 345 343 341 340 339 337 335 335 336 318 205 221 154 204 228 228 229 265 15 14 251 177 227 204 188 215 197 215 214 216 222 245 234 235 116 202 205 229 234 216 249 275 278 276
344 346 346 346 343 342 341 342 340 339 335 339 304 239 114 160 186 227 240 256 297 307 298 249 257 204 226 202 206 226 209 222 229 207 234 265 269 180 188 239 220 245 266 236 229 262 271
341 342 342 342 344 343 342 342 342 342 337 328 258 242 119 175 216 229 240 246 314 225 269 261 264 274 251 283 201 236 223 225 235 209 220 236 257 262 175 202 237 188 234 248 272 270 260
337 340 343 344 345 344 344 344 344 345 342 323 284 256 131 204 226 232 251 296 23 281 202 261 263 285 287 283 264 227 250 250 175 251 230 222 250 239 248 224 223 247 268 217 234 237 260
333 340 343 345 345 344 345 345 343 345 359 319 298 298 151 229 250 240 233 263 254 275 250 263 258 256 274 267 271 269 253 88 141 226 239 236 226 250 255 245 226 234 244 258 268 247 254
328 336 341 343 345 347 347 346 342 339 346 313 283 261 165 210 265 282 296 276 260 174 279 282 280 298 271 258 260 264 267 150 178 238 360 293 255 251 262 242 352 305 229 254 257 259 261
322 329 336 342 346 349 349 347 344 340 337 309 280 45 358 272 170 300 290 286 292 263 197 253 266 254 267 270 258 244 243 264 168 179 255 238 254 263 271 274 282 285 256 267 277 282 276
307 317 330 340 345 348 351 351 351 345 337 245 322 338 350 285 274 270 247 253 255 263 257 268 227 277 253 273 275 296 330 247 256 198 216 248 251 268 272 273 273 278 269 274 262 258 263
301 308 321 335 344 348 353 355 356 356 345 340 2 289 277 278 274 263 283 300 301 334 296 275 298 307 282 313 334 316 305 300 301 282 277 231 256 257 257 260 255 250 253 259 269 269 263
288 295 311 326 341 345 351 358 360 359 360 319 14 301 277 285 237 301 338 313 288 288 286 305 272 276 322 325 300 270 265 265 266 260 253 257 267 264 267 276 260 263 269 279 271 277 274
274 274 293 320 336 341 345 354 357 355 350 321 344 324 314 290 318 285 267 287 285 263 245 254 267 276 306 289 279 266 255 252 247 244 245 248 257 256 258 256 266 263 263 267 269 261 261
268 264 275 303 322 333 341 347 352 350 347 319 27 313 291 298 75 355 307 299 292 294 278 233 225 284 283 268 254 247 250 259 251 232 230 241 242 249 248 256 260 270 288 355 328 285 270
258 253 257 279 312 328 339 347 348 345 342 323 319 343 282 289 285 328 298 332 335 301 284 286 239 260 226 252 248 249 254 245 259 268 263 235 238 258 251 249 256 269 282 302 255 259 13
252 238 238 256 301 325 336 345 349 347 340 328 341 24 314 296 297 298 283 277 273 239 271 44 283 209 264 244 260 258 252 253 257 255 260 249 231 254 248 258 262 270 258 239 196 59 35
245 223 218 240 282 314 331 341 346 346 336 334 290 28 290 269 297 317 288 277 276 283 291 294 287 305 333 304 286 291 274 274 267 271 229 247 258 273 271 270 22 332 320 61 326 307 273